TimeHST,TemperatureF,Dew PointF,Humidity,Sea Level PressureIn,VisibilityMPH,Wind Direction,Wind SpeedMPH,Gust SpeedMPH,PrecipitationIn,Events,Conditions,WindDirDegrees,DateUTC
12:40 AM,73.4,68.0,83,30.05,6.2,NNE,4.6,-,N/A,,Mostly Cloudy,20,2013-01-03 10:40:00
12:56 AM,70.0,70.0,100,30.06,10.0,NE,5.8,-,N/A,,Overcast,50,2013-01-03 10:56:00
12:59 AM,69.8,69.8,100,30.05,6.2,ENE,5.8,-,N/A,,Overcast,60,2013-01-03 10:59:00
1:56 AM,70.0,69.1,97,30.04,10.0,NE,4.6,-,N/A,,Mostly Cloudy,40,2013-01-03 11:56:00
2:56 AM,72.0,69.1,91,30.03,10.0,NNE,13.8,-,N/A,,Scattered Clouds,20,2013-01-03 12:56:00
3:56 AM,72.0,68.0,87,30.02,10.0,NNE,15.0,-,N/A,,Overcast,20,2013-01-03 13:56:00
4:56 AM,71.1,66.9,87,30.01,10.0,NNE,13.8,20.7,N/A,,Partly Cloudy,20,2013-01-03 14:56:00
5:56 AM,71.1,69.1,93,30.02,10.0,NNE,5.8,-,N/A,,Scattered Clouds,30,2013-01-03 15:56:00
6:56 AM,69.1,69.1,100,30.03,10.0,Calm,Calm,-,N/A,,Overcast,0,2013-01-03 16:56:00
7:56 AM,69.1,66.0,90,30.05,10.0,NE,3.5,-,N/A,,Partly Cloudy,40,2013-01-03 17:56:00
8:56 AM,75.0,68.0,79,30.06,10.0,NNE,6.9,-,N/A,,Clear,30,2013-01-03 18:56:00
9:56 AM,75.9,70.0,82,30.09,10.0,Calm,Calm,-,N/A,,Clear,0,2013-01-03 19:56:00
10:19 AM,80.6,68.0,65,30.08,10.0,North,10.4,18.4,N/A,,Mostly Cloudy,10,2013-01-03 20:19:00
10:47 AM,78.8,68.0,69,30.07,10.0,NNE,11.5,-,N/A,,Scattered Clouds,20,2013-01-03 20:47:00
10:56 AM,79.0,68.0,69,30.08,10.0,NNE,9.2,-,N/A,,Scattered Clouds,20,2013-01-03 20:56:00
11:04 AM,78.8,66.2,65,30.07,10.0,North,12.7,-,N/A,,Mostly Cloudy,10,2013-01-03 21:04:00
11:34 AM,78.8,68.0,69,30.06,10.0,North,11.5,-,N/A,,Scattered Clouds,350,2013-01-03 21:34:00
11:56 AM,79.0,69.1,72,30.06,10.0,North,12.7,20.7,N/A,,Mostly Cloudy,10,2013-01-03 21:56:00
12:56 PM,81.0,66.0,60,30.03,10.0,North,15.0,20.7,N/A,,Partly Cloudy,360,2013-01-03 22:56:00
1:56 PM,80.1,69.1,69,30.01,10.0,North,24.2,29.9,N/A,,Clear,10,2013-01-03 23:56:00
2:56 PM,79.0,70.0,74,30.00,10.0,NNE,25.3,32.2,N/A,,Partly Cloudy,20,2013-01-04 00:56:00
3:56 PM,79.0,70.0,74,30.00,10.0,North,21.9,29.9,N/A,,Clear,10,2013-01-04 01:56:00
4:56 PM,75.0,70.0,84,30.01,10.0,NNE,21.9,-,N/A,,Clear,20,2013-01-04 02:56:00
5:56 PM,73.9,66.9,79,30.04,10.0,NNE,9.2,20.7,N/A,,Clear,30,2013-01-04 03:56:00
6:56 PM,73.0,66.0,79,30.06,10.0,NNE,11.5,-,N/A,,Clear,20,2013-01-04 04:56:00
7:56 PM,73.0,66.0,79,30.08,10.0,NE,4.6,-,N/A,,Clear,40,2013-01-04 05:56:00
8:56 PM,72.0,69.1,91,30.09,10.0,NE,4.6,-,N/A,,Clear,40,2013-01-04 06:56:00
9:56 PM,69.1,69.1,100,30.09,10.0,Calm,Calm,-,N/A,,Clear,0,2013-01-04 07:56:00
10:56 PM,66.9,63.0,87,30.09,10.0,ENE,3.5,-,N/A,,Clear,60,2013-01-04 08:56:00
11:56 PM,66.9,64.9,93,30.09,10.0,Calm,Calm,-,N/A,,Clear,0,2013-01-04 09:56:00